CZ-3B DEB, 40186

Orbit data source: Space-Track

CZ-3B DEB, 40186 is space debris in HEO originally from a launch on Mon, 19 Dec 2011 UTC launched from the Xichang Space Center, China (XSC). Debris objects in space refer to the collection of defunct objects orbiting the Earth. Examples of debris include non-operational satellites, rocket bodies, and fragments generated from explosions, collisions, or faulty payload assembly.

Loading next visibility...
Identifier
40186, 2011-077K
Orbit
HEO
Country
Flag of CNCN / PRC
Related business
Manufacturer
CALT
Mission
Spacecraft
Bus & Motor
Unknown
Mass
Unknown
Launch date (UTC)
2011-12-19 (15 years ago)
Launch vehicle
Unknown
Launch site
Xichang Space Center, China (XSC)
Object type
Payload
Rocket body
Debris
Shape & HBR
Unknown shape, 0.2 m
Radar Cross Section
Medium (>0.1 m² and <1 m²)

Expand to show TLE details & history
Last TLE update: 3 days ago

TLE from 3 days ago
0 CZ-3B DEB
1 40186U 11077K   26170.28003463 -.00000089  00000-0  00000-0 0  9995
2 40186  25.7716  85.1422 7292687 253.5779 330.6171  1.88718867 99159
Epoch: 2026-06-19T06:43Z
TLE epoch observation values (Epoch: 2026-06-19T06:43:14.992Z)
Latitude
18.0853°
Longitude
-145.64322°
Altitude
13,680.039 km
Speed
5.033 km/s
True Right ascension
14h 50m 43s
True Declination
18° 02' 57"
Sunlit
Object was in daylight at epoch
Visualization orbit readout
Latitude
Unknown
Longitude
Unknown
Altitude
Unknown
Speed
Unknown
Apparent Right ascension
Unknown
Apparent Declination
Unknown
Sunlit
N/A
Visualization observer readout
Local Sidereal Time
21:38:23
Azimuth
Unknown
Elevation
Unknown
Doppler factor
Unknown
Orbital elements
Apogee altitude
41,460.297 km
Perigee altitude
1,111.365 km
Semi-major axis
27,663.968 km
Eccentricity
0.72927
Inclination
25.7716°
RAAN
85.1422°
Arg. of periapsis
253.5779°
True anomaly
240.63211°
Mean anomaly
330.6171°
Eccentric anomaly
291.82912°
Mean motion
0.47171 °/min
Orbital period
763.19 mins
BSTAR
0
Loading maneuver chart data...
Computing Atmospheric mass density...
Loading historical data...
Loading historical data...
Loading historical data...
Loading historical data...
Loading historical data...
Loading historical data...
Loading historical data...

Documentation

Showing up to 5 results
|